Location: Powell Observatory
(38.6461°N, 94.6997°W)
Time: 14:49:13
(UTC-06:00)

Envisat - Visible Passes

Search period start: 01 December 2021 00:00
Search period end: 11 December 2021 00:00
Orbit: 764 x 766 km, 98.2° (Epoch: 01 December)

Date Brightness Start Highest point End Pass type
(mag) Time Alt. Az. Time Alt. Az. Time Alt. Az.
01 Dec 4.2 04:48:34 10° NNE 04:53:23 41° E 04:58:10 10° S visible
01 Dec 4.1 06:28:16 10° NNW 06:32:06 22° WNW 06:35:55 10° WSW visible
01 Dec 5.9 17:42:14 10° SW 17:45:41 18° W 17:49:09 10° NW visible
02 Dec 5.5 04:12:49 10° NE 04:16:17 18° E 04:19:44 10° SE visible
02 Dec 3.2 05:50:39 10° N 05:55:31 48° WNW 06:00:22 10° SW visible
03 Dec 3.1 05:13:39 10° NNE 05:18:44 75° ESE 05:23:48 10° S visible
04 Dec 4.6 04:37:14 10° NNE 04:41:46 32° E 04:46:17 10° SSE visible
04 Dec 3.8 06:16:24 10° N 06:20:38 28° WNW 06:24:53 10° SW visible
04 Dec 5.7 17:30:01 10° SSW 17:34:02 23° W 17:38:04 10° NW visible
05 Dec 5.8 04:01:59 10° ENE 04:04:37 14° E 04:07:13 10° ESE visible
05 Dec 2.9 05:38:59 10° N 05:44:00 61° WNW 05:48:59 10° SSW visible
06 Dec 3.5 05:02:09 10° NNE 05:07:10 58° E 05:12:10 10° S visible
06 Dec 4.4 06:42:36 10° NNW 06:45:40 16° WNW 06:48:44 10° W visible
06 Dec 6.1 17:57:19 10° WSW 17:59:35 13° W 18:01:52 10° WNW visible
07 Dec 5.1 04:25:58 10° NE 04:30:09 25° E 04:34:18 10° SSE visible
07 Dec 3.5 06:04:36 10° N 06:09:11 35° WNW 06:13:44 10° SW visible
08 Dec 6.1 03:51:58 10° ENE 03:52:55 10° E 03:53:52 10° E visible
08 Dec 2.8 05:27:23 10° N 05:32:29 79° WNW 05:37:33 10° SSW visible
09 Dec 4.0 04:50:43 10° NNE 04:55:35 45° E 05:00:25 10° S visible
09 Dec 4.2 06:30:34 10° NNW 06:34:15 21° WNW 06:37:55 10° WSW visible
09 Dec 5.9 17:44:40 10° SW 17:47:54 17° W 17:51:09 10° NW visible
10 Dec 5.4 04:14:50 10° NE 04:18:30 20° E 04:22:08 10° SE visible
10 Dec 3.2 05:52:52 10° N 05:57:41 44° WNW 06:02:28 10° SW visible
